Погода в Легнице

Польша     51°12′15″N   16°10′25″E
темп.,
°C
ветер,
м/с
пор.,
м/с
влажн.,
%
обл.,
%
осадки,
мм/ч
давл.,
гПа
погр.,
м
1 марта, пн
пн101:00+3ссз359087 0.0 1036157
04:00+3сз228499 0.0 1036416
07:00+3сз1182100 0.0 1036316
10:00+5ю117488 0.0 1036487
13:00+8вюв116448 0.0 1036493
16:00+9вюв11630 0.0 1035465
19:00+6вюв22780 0.0 103522
22:00+4ю22830 0.0 103522
2 марта, вт
вт201:00+4сз00840 0.0 103622
04:00+3зюз11850 0.0 103422
07:00+3з22870 0.0 103522
10:00+8зсз23680 0.0 1035281
13:00+12зсз23520 0.0 1034575
16:00+13сз12520 0.0 1033580
19:00+8ссв11690 0.0 103322
22:00+6в11750 0.0 103422
3 марта, ср
ср301:00+5в12810 0.0 103322
04:00+4юв12850 0.0 103222
07:00+3юв11850 0.0 103222
10:00+9вюв11640 0.0 1031255
13:00+12ююв11470 0.0 1028531
16:00+13зсз11470 0.0 1025464
19:00+8з22630 0.0 102527
22:00+6зюз34708 0.0 102373
4 марта, чт
чт401:00+5зюз497042 0.0 1021199
04:00+5з4117954 0.0 1019236
07:00+5з4128260 0.0 1018294
10:00+9з697390 0.0 1017664
13:00+10з697395 0.0 10151024
16:00+8сз4878100 0.1 1013670
19:00+7з3786100 0.8 1012231
22:00+6зсз3688100 0.1 1012227
5 марта, пт
пт501:00+6з2486100 0.6 1011139
04:00+5с4588100 0.3 1010399
07:00+3с5796100 1.1 1011431
10:00+1с71087100 0.7 1014745
13:00+2ссв6981100 1.1 1017851
16:00+3с6852100 0.3 10191613
19:000ссз236157 0.3 102246
22:000с387299 0.1 1026514